Location: Allen Fire Department Station 4
(33.1073°N, 96.6988°W)
Time: 08:37:35
(UTC+00:00)

Cosmos 1763 Rocket - Pass Details

Date: 02 July 2022
Orbit: 732 x 780 km, 74.0° (Epoch: 17 August)

Event Time Altitude Azimuth Distance (km) Brightness Sun altitude
Exits shadow 07:41:33 50° 9° (N) 963 4.2 -31.4°
Drops below altitude 10° 07:45:25 10° 15° (NNE) 2,310 6.9 -31.1°
Sets 07:47:49 0° 16° (NNE) 3,246 7.9 -30.9°
